Regional Weather Roundup
Issued by NWS

Home | Current Version | Previous Version | Graphics & Text | Print | Product List | Glossary On
Versions: 1 2 3 4 5 6 7 8 9 10 11 12 13 14 15 16 17 18 19 20 21 22 23 24 25 26 27 28 29 30 31 32 33 34 35 36 37 38 39 40 41 42 43 44 45 46 47 48 49 50
000
ASUS43 KLMK 282302
RWRKY
KENTUCKY REGIONAL WEATHER ROUNDUP
NATIONAL WEATHER SERVICE LOUISVILLE KY
700 PM EDT THU JUL 28 2016

NOTE "FAIR" INDICATES FEW OR NO CLOUDS BELOW 12,000 FEET
WITH NO SIGNIFICANT WEATHER AND/OR OBSTRUCTIONS TO VISIBILITY.

KYZ001>023-026-027-061>063-070>075-290000-
WESTERN AND SOUTH CENTRAL KENTUCKY

CITY           SKY/WX    TMP DP  RH WIND       PRES   REMARKS
PADUCAH        CLOUDY    85  75  72 SW3       29.88R HX  93
HENDERSON      CLOUDY    84  75  74 CALM      29.86S HX  92
OWENSBORO      SUNNY     85  75  71 W3        29.89R HX  93
HOPKINSVILLE   NOT AVBL
BOWLING GREEN  CLOUDY    82  72  71 E5        29.91R
GLASGOW        NOT AVBL
$$

KYZ024-025-028>034-038-045-046-053-290000-
NORTH CENTRAL KENTUCKY

CITY           SKY/WX    TMP DP  RH WIND       PRES   REMARKS
LOUISVILLE/SDF PTSUNNY   86  69  56 SW9       29.87R HX  90
LOUISVILLE/LOU MOSUNNY   86  70  58 W7        29.88R HX  90
FORT KNOX      NOT AVBL
$$

KYZ035>037-039>044-047>052-055>060-089>105-290000-
NORTHEAST KENTUCKY

CITY           SKY/WX    TMP DP  RH WIND       PRES   REMARKS
LEXINGTON      CLOUDY    78  70  76 S8        29.91S
COVINGTON      MOSUNNY   82  71  69 CALM      29.88S
FRANKFORT      CLOUDY    81  71  71 S3        29.88R
$$

KYZ054-064>069-076>088-106>120-290000-
SOUTHEAST KENTUCKY

CITY           SKY/WX    TMP DP  RH WIND       PRES   REMARKS
JACKSON        RAIN      72  70  93 CALM      29.93S FOG
LONDON         CLOUDY    73  68  84 CALM      29.93F
SOMERSET       CLOUDY    72  70  94 CALM      29.94R
MIDDLESBORO    LGT RAIN  71  71 100 CALM      29.94S
MONTICELLO     CLOUDY   N/A N/A N/A VRB7      29.95R
$$





USA.gov is the U.S. government's official web portal to all federal, state and local government web resources and services.